Location: Saratoga Springs
(43.0831°N, 73.7850°W)
Time: 03:52:26
(UTC-04:00)

Vanguard 1 Rocket - Pass Details

Date: 21 April 2024
Orbit: 651 x 4220 km, 34.3° (Epoch: 17 May)

Event Time Altitude Azimuth Distance (km) Brightness Sun altitude
Rises 18:16:55 0° 217° (SW) 2,948 10.5 15.0°
Reaches altitude 10° 18:19:37 10° 198° (SSW) 2,097 9.5 14.5°
Maximum altitude 18:22:52 19° 152° (SSE) 1,755 8.7 13.9°
Drops below altitude 10° 18:26:51 10° 108° (ESE) 2,646 9.2 13.2°
Sets 18:30:52 0° 92° (E) 4,071 10.1 12.5°
